When you browse on this site, cookies collect data to enhance your experience and personalize the content and advertising you see.
Visit our Privacy Policy to learn more. By continuing to use the site, you agree to this use of cookies and data.
  • In United Kingdom
  • List of Countries
  • For 7 days
  • Water Temperature
  • Satellite Maps
  • Weather Map
  • Weather Widgets
  • user-avatar
    Login

    Hourly Weather Kuldiga

    Today, 24 April, Wednesday

    Time Temperature Precipitation Wind Pressure Humidity
    00:00 +9°C° 0 mm 2 mps 766 mmHg 63%
    01:00 +9°C° 0 mm 3 mps 766 mmHg 60%
    02:00 +9°C° 0 mm 3 mps 765 mmHg 61%
    03:00 +9°C° 0 mm 3 mps 765 mmHg 62%
    04:00 +9°C° 0 mm 3 mps 765 mmHg 63%
    05:00 +10°C° 0 mm 3 mps 765 mmHg 59%
    06:00 +12°C° 0 mm 3 mps 765 mmHg 55%
    07:00 +14°C° 0 mm 4 mps 765 mmHg 50%
    08:00 +15°C° 0 mm 5 mps 765 mmHg 44%
    09:00 +17°C° 0 mm 5 mps 765 mmHg 38%
    10:00 +20°C° 0 mm 6 mps 765 mmHg 32%
    11:00 +20°C° 0 mm 7 mps 765 mmHg 32%
    12:00 +20°C° 0 mm 7 mps 765 mmHg 32%
    13:00 +21°C° 0 mm 7 mps 764 mmHg 32%
    14:00 +21°C° 0 mm 6 mps 764 mmHg 33%
    15:00 +20°C° 0 mm 6 mps 764 mmHg 35%
    16:00 +20°C° 0 mm 5 mps 764 mmHg 36%
    17:00 +19°C° 0 mm 5 mps 763 mmHg 42%
    18:00 +17°C° 0 mm 4 mps 763 mmHg 49%
    19:00 +14°C° 0 mm 3 mps 763 mmHg 55%
    20:00 +14°C° 0 mm 3 mps 763 mmHg 54%
    21:00 +14°C° 0 mm 3 mps 763 mmHg 54%
    22:00 +14°C° 0 mm 3 mps 763 mmHg 53%
    23:00 +14°C° 0.1 mm 3 mps 763 mmHg 56%

    Tomorrow, 25 April, Thursday

    Time Temperature Precipitation Wind Pressure Humidity
    00:00 +13°C° 0.1 mm 3 mps 763 mmHg 59%
    01:00 +13°C° 0.1 mm 3 mps 763 mmHg 62%
    02:00 +12°C° 0 mm 3 mps 763 mmHg 64%
    03:00 +11°C° 0 mm 3 mps 762 mmHg 65%
    04:00 +11°C° 0 mm 3 mps 762 mmHg 67%
    05:00 +12°C° 0 mm 4 mps 762 mmHg 63%
    06:00 +13°C° 0 mm 4 mps 762 mmHg 60%
    07:00 +14°C° 0 mm 4 mps 762 mmHg 57%
    08:00 +15°C° 0 mm 4 mps 762 mmHg 54%
    09:00 +17°C° 0 mm 4 mps 762 mmHg 51%
    10:00 +19°C° 0 mm 5 mps 761 mmHg 48%
    11:00 +20°C° 0 mm 4 mps 761 mmHg 48%
    12:00 +21°C° 0 mm 4 mps 761 mmHg 47%
    13:00 +22°C° 0 mm 4 mps 761 mmHg 46%
    14:00 +22°C° 0 mm 4 mps 761 mmHg 47%
    15:00 +22°C° 0 mm 4 mps 761 mmHg 48%
    16:00 +22°C° 0 mm 4 mps 760 mmHg 49%
    17:00 +20°C° 0 mm 3 mps 760 mmHg 57%
    18:00 +18°C° 0 mm 3 mps 760 mmHg 64%
    19:00 +17°C° 0 mm 2 mps 760 mmHg 71%
    20:00 +16°C° 0.1 mm 2 mps 760 mmHg 74%
    21:00 +15°C° 0.1 mm 2 mps 760 mmHg 78%
    22:00 +14°C° 0.1 mm 2 mps 760 mmHg 81%
    23:00 +14°C° 0.3 mm 2 mps 760 mmHg 83%

    Day after tomorrow, 26 April, Friday

    Time Temperature Precipitation Wind Pressure Humidity
    00:00 +13°C° 0.3 mm 2 mps 760 mmHg 86%
    01:00 +13°C° 0.3 mm 2 mps 759 mmHg 88%
    02:00 +13°C° 0 mm 2 mps 759 mmHg 89%
    03:00 +12°C° 0 mm 2 mps 759 mmHg 90%
    04:00 +12°C° 0 mm 2 mps 759 mmHg 90%
    05:00 +13°C° 0 mm 2 mps 759 mmHg 86%
    06:00 +13°C° 0 mm 3 mps 759 mmHg 81%
    07:00 +16°C° 0 mm 3 mps 759 mmHg 76%
    08:00 +18°C° 0 mm 3 mps 758 mmHg 68%
    09:00 +19°C° 0 mm 3 mps 758 mmHg 60%
    10:00 +21°C° 0 mm 4 mps 758 mmHg 52%
    11:00 +22°C° 0 mm 4 mps 758 mmHg 51%
    12:00 +23°C° 0 mm 4 mps 757 mmHg 49%
    13:00 +23°C° 0 mm 4 mps 757 mmHg 48%
    14:00 +24°C° 0.6 mm 3 mps 757 mmHg 51%
    15:00 +24°C° 0.6 mm 3 mps 756 mmHg 54%
    16:00 +22°C° 0.6 mm 3 mps 756 mmHg 58%
    17:00 +21°C° 0.6 mm 3 mps 756 mmHg 64%
    18:00 +19°C° 0.6 mm 2 mps 755 mmHg 71%
    19:00 +17°C° 0.6 mm 2 mps 755 mmHg 77%
    20:00 +16°C° 0.1 mm 2 mps 755 mmHg 79%
    21:00 +16°C° 0.1 mm 2 mps 755 mmHg 81%
    22:00 +15°C° 0.1 mm 2 mps 755 mmHg 83%
    23:00 +14°C° 0 mm 2 mps 755 mmHg 85%

    27 April, Saturday

    Time Temperature Precipitation Wind Pressure Humidity
    00:00 +14°C° 0 mm 2 mps 754 mmHg 87%
    01:00 +14°C° 0 mm 2 mps 754 mmHg 88%
    02:00 +13°C° 0 mm 2 mps 754 mmHg 90%
    03:00 +13°C° 0 mm 2 mps 754 mmHg 91%
    04:00 +13°C° 0 mm 2 mps 754 mmHg 92%
    05:00 +14°C° 0 mm 2 mps 754 mmHg 87%
    06:00 +16°C° 0 mm 2 mps 754 mmHg 83%
    07:00 +17°C° 0 mm 3 mps 754 mmHg 78%
    08:00 +19°C° 0 mm 3 mps 754 mmHg 71%
    09:00 +20°C° 0 mm 3 mps 754 mmHg 64%
    10:00 +22°C° 0 mm 3 mps 754 mmHg 57%
    11:00 +24°C° 0 mm 3 mps 754 mmHg 54%
    12:00 +23°C° 0 mm 4 mps 754 mmHg 51%
    13:00 +25°C° 0 mm 4 mps 754 mmHg 49%
    14:00 +25°C° 0 mm 4 mps 754 mmHg 49%
    15:00 +23°C° 0 mm 4 mps 754 mmHg 49%
    16:00 +23°C° 0 mm 4 mps 754 mmHg 50%
    17:00 +21°C° 0 mm 4 mps 754 mmHg 54%
    18:00 +19°C° 0 mm 3 mps 754 mmHg 58%
    19:00 +17°C° 0 mm 3 mps 754 mmHg 63%
    20:00 +17°C° 0 mm 3 mps 755 mmHg 63%
    21:00 +16°C° 0 mm 3 mps 755 mmHg 63%
    22:00 +16°C° 0 mm 3 mps 756 mmHg 64%
    23:00 +15°C° 0 mm 4 mps 756 mmHg 64%

    28 April, Sunday

    Time Temperature Precipitation Wind Pressure Humidity
    00:00 +14°C° 0 mm 4 mps 756 mmHg 65%
    01:00 +14°C° 0 mm 4 mps 757 mmHg 66%
    02:00 +13°C° 0 mm 4 mps 757 mmHg 66%
    03:00 +13°C° 0 mm 4 mps 757 mmHg 67%
    04:00 +12°C° 0 mm 4 mps 758 mmHg 67%
    05:00 +13°C° 0 mm 4 mps 758 mmHg 62%
    06:00 +14°C° 0 mm 5 mps 759 mmHg 57%
    07:00 +14°C° 0 mm 5 mps 759 mmHg 53%
    08:00 +15°C° 0 mm 5 mps 760 mmHg 51%
    09:00 +16°C° 0 mm 5 mps 761 mmHg 49%
    10:00 +17°C° 0 mm 5 mps 761 mmHg 46%
    11:00 +19°C° 0 mm 5 mps 761 mmHg 45%
    12:00 +19°C° 0 mm 5 mps 762 mmHg 43%
    13:00 +19°C° 0 mm 5 mps 762 mmHg 41%
    14:00 +17°C° 0 mm 5 mps 762 mmHg 40%
    15:00 +16°C° 0 mm 5 mps 762 mmHg 39%
    16:00 +16°C° 0 mm 5 mps 762 mmHg 38%
    17:00 +14°C° 0 mm 5 mps 762 mmHg 39%
    18:00 +12°C° 0 mm 4 mps 763 mmHg 40%
    19:00 +10°C° 0 mm 4 mps 763 mmHg 41%
    20:00 +10°C° 0 mm 4 mps 764 mmHg 43%
    21:00 +8°C° 0 mm 4 mps 764 mmHg 45%
    22:00 +8°C° 0 mm 3 mps 765 mmHg 46%
    23:00 +7°C° 0 mm 3 mps 765 mmHg 48%

    29 April, Monday

    Time Temperature Precipitation Wind Pressure Humidity
    00:00 +7°C° 0 mm 3 mps 765 mmHg 51%
    01:00 +5°C° 0 mm 3 mps 765 mmHg 53%
    02:00 +4°C° 0 mm 3 mps 765 mmHg 55%
    03:00 +4°C° 0 mm 3 mps 765 mmHg 57%
    04:00 +3°C° 0 mm 3 mps 765 mmHg 59%
    05:00 +5°C° 0 mm 3 mps 766 mmHg 56%
    06:00 +7°C° 0 mm 3 mps 766 mmHg 53%
    07:00 +8°C° 0 mm 3 mps 766 mmHg 50%
    08:00 +10°C° 0 mm 4 mps 766 mmHg 46%
    09:00 +12°C° 0 mm 4 mps 766 mmHg 41%
    10:00 +13°C° 0 mm 4 mps 766 mmHg 37%
    11:00 +14°C° 0 mm 4 mps 766 mmHg 36%
    12:00 +15°C° 0 mm 4 mps 766 mmHg 34%
    13:00 +15°C° 0 mm 4 mps 766 mmHg 33%
    14:00 +15°C° 0 mm 4 mps 766 mmHg 34%
    15:00 +15°C° 0 mm 4 mps 765 mmHg 34%
    16:00 +14°C° 0 mm 4 mps 765 mmHg 35%
    17:00 +12°C° 0 mm 3 mps 765 mmHg 40%
    18:00 +10°C° 0 mm 3 mps 765 mmHg 45%
    19:00 +8°C° 0 mm 2 mps 765 mmHg 50%
    20:00 +7°C° 0 mm 2 mps 765 mmHg 51%
    21:00 +6°C° 0 mm 2 mps 766 mmHg 52%
    22:00 +5°C° 0 mm 2 mps 766 mmHg 54%
    23:00 +5°C° 0 mm 2 mps 766 mmHg 55%
    Show more